Weather in Kaposvár

Hungary     46°21′49″N   17°46′57″E
temp.,
°C
wind,
m/s
gust,
m/s
humid.,
%
clouds,
%
prec.,
mm/h
press.,
hPa
HPBL,
m
24 may, tue
tue2423:00+16sse4116997 0.0 1009231
02:00+15se41174100 0.3 1007262
05:00+13ese2491100 1.1 100878
08:00+16sse36785 1.1 1008253
11:00+23se22605 0.0 1008784
14:00+26ssw255016 0.0 10071648
17:00+27se335282 0.0 1006834
20:00+22ese237145 0.1 100657
25 may, wed
wed2523:00+16e249398 2.3 100974
02:00+14e3595100 2.4 101094
05:00+13ne119586 0.0 101114
08:00+17n1187100 0.0 1013243
11:00+23nw336492 0.0 1014801
14:00+25nw555767 0.0 10141463
17:00+21n686440 0.0 1014728
20:00+16n489196 2.1 1017333
26 may, thu
thu2623:00+13nnw2794100 0.4 1020167
02:00+12nnw269574 0.4 1021146
05:00+13nnw119159 0.0 102215
08:00+15nne128063 0.0 1023172
11:00+22ne114969 0.0 1023966
14:00+25e114056 0.0 10221522
17:00+25sse11435 0.0 10211567
20:00+20ese11655 0.0 102111
27 may, fri
fri2723:00+17ese22685 0.0 102112
02:00+16se117331 0.0 102111
05:00+15sse117299 0.0 102011
08:00+19se1263100 0.0 1020157
11:00+24s335295 0.0 1018934
14:00+26ssw334981 0.0 10161522
17:00+25nw2458100 0.0 1014365
20:00+21ne357675 0.0 101377
28 may, sat
sat2823:00+16n51489100 3.0 1016467
02:00+14ne51387100 3.4 1017611
05:00+13ne31079100 0.0 1017454
08:00+12ene3785100 0.4 1019283
11:00+12ene2488100 0.4 1020294
14:00+11nne31187100 1.3 10211213
17:00+11s2292100 1.3 1020101
20:00+10ssw2393100 1.3 102199